[[{"header":{"parameterUnit":"m.s-1","parameterCategory":1,"la1":30.2991,"la2":30.254,"lo1":-89.0895,"lo2":-89.0444,"dy":0.0017,"dx":0.0017,"nx":28,"ny":28,"refTime":"2026-02-06T03:00:00:Z","depth":0,"parameterNumber":2,"parameterNumberName":"U-component_of_WINDS"},"data":[0,0,0,0,0,0,0,0,0,0,0,0,0,0,0,0,0,0,0,0,0,0,0,0,0,0,0,0,0,0,0,0,0,0,0,0,0,0,0,0,0,0,0,0,0,0,0,0,0,0,0,0,0,0,0,0,0,0,5.5838,5.5839,0,5.5933,5.5934,5.5935,5.5829,5.5825,5.5821,5.5817,5.5925,5.5931,5.5938,0,0,0,0,0,0,0,0,0,0,0,0,0,5.5576,5.5581,5.5838,5.5839,5.584,5.5933,5.5934,5.5936,5.583,5.5825,5.582,5.5815,5.5923,5.5931,5.5939,0,0,0,0,0,0,0,0,0,0,0,0,0,5.5683,5.5583,5.5838,5.5798,5.5796,5.5933,5.5934,5.5936,5.5831,5.5825,5.5819,5.5813,5.592,5.593,5.594,5.6123,0,0,5.597,5.5974,0,0,0,0,0,0,0,0,5.5677,5.5692,5.5803,5.5801,5.5799,5.5863,5.5881,5.5999,5.5832,5.5818,5.5817,5.581,5.591,5.592,5.5952,5.6128,5.6133,5.5971,5.5977,5.5981,5.5984,0,0,0,0,0,0,0,5.567,5.5688,5.5876,5.5805,5.5802,5.578,5.5788,5.5903,5.5897,5.5819,5.5811,5.5823,5.5908,5.5943,5.5954,5.6134,5.5971,5.598,5.5986,5.599,5.6474,5.648,0,0,0,0,0,0,5.5665,5.5682,5.5873,5.5879,5.5721,5.579,5.5799,5.5849,5.5896,5.5897,5.5828,5.5818,5.5928,5.5942,5.5957,5.618,5.5981,5.5991,5.5996,5.6467,5.6475,5.6482,0,0,0,0,0,0,5.566,5.5683,5.5869,5.5779,5.58,5.58,5.5857,5.5854,5.5888,5.5903,5.5902,5.5865,5.5924,5.5943,5.6084,5.6182,5.5995,5.6004,5.6459,5.6469,5.6479,5.6624,0,0,0,0,0,0,5.5653,5.5682,5.5748,5.5781,5.5806,5.5991,5.5863,5.586,5.5905,5.5892,5.5937,5.5938,5.5921,5.6069,5.6094,5.6192,5.6012,5.645,5.6463,5.6475,5.6611,5.6638,5.6662,0,0,0,0,0,5.5644,5.5786,5.5752,5.5776,5.5888,5.5996,5.6011,5.5985,5.5913,5.5983,5.5993,5.5937,5.6166,5.6084,5.6111,5.6214,5.6444,5.646,5.6475,5.6599,5.6633,5.6661,0,0,0,0,0,0,5.5768,5.579,5.5752,5.5908,5.5951,5.5978,5.6064,5.6021,5.6087,5.6073,5.6041,5.6052,5.6203,5.6222,5.613,5.6398,5.6294,5.6315,5.638,5.6412,5.6437,5.6431,5.602,0,0,0,0,0,5.5813,5.5895,5.5911,5.6048,5.6071,5.6064,5.611,5.6087,5.6131,5.6149,5.6169,5.6218,5.6301,5.6357,5.6434,5.6612,5.6624,5.6697,5.6723,5.6743,5.6764,5.6866,5.69,5.6533,5.6533,5.6533,0,0,5.5908,5.593,5.5984,5.6073,5.6103,5.6194,5.608,5.6179,5.6248,5.6165,5.63,5.6317,5.6369,5.6531,5.6603,5.6552,5.6868,5.6763,5.678,5.6789,5.6885,5.692,5.6951,5.6544,5.6542,5.654,0,0,5.6128,5.615,5.6269,5.6302,5.6349,5.6344,5.6373,5.6407,5.6415,5.6549,5.649,5.6573,5.6716,5.6757,5.6797,5.7038,5.6991,5.7064,5.7199,5.7299,5.7328,5.7353,5.7445,5.7477,5.7083,5.7083,5.7084,0,5.6241,5.6371,5.6336,5.6442,5.6485,5.6412,5.6536,5.6571,5.6642,5.6676,5.6616,5.6798,5.6827,5.7,5.706,5.7092,5.7129,5.706,5.7325,5.7351,5.7374,5.7462,5.7495,5.7092,5.7091,5.709,5.7089,0,5.6511,5.6603,5.6694,5.6763,5.6817,5.6931,5.6918,5.6978,5.6951,5.6954,5.7095,5.7128,5.7213,5.7252,5.7226,5.7424,5.7391,5.7329,5.7225,5.7419,5.7501,5.7533,5.7105,5.7102,5.7099,5.7097,0,0,5.6812,5.6862,5.6897,5.693,5.6977,5.705,5.7163,5.7244,5.7299,5.7351,5.7449,5.7573,5.7517,5.7563,5.7542,5.7629,5.7825,5.7557,5.7558,5.761,5.8052,5.8102,5.814,5.7793,5.7799,5.7804,5.8049,0,5.7037,5.7229,5.7204,5.7391,5.748,5.7413,5.7513,5.7556,5.7563,5.7643,5.7651,5.7742,5.7658,5.7686,5.7769,5.7783,5.7914,5.7765,5.789,5.7895,5.7883,5.8182,5.8234,5.8464,5.808,5.8086,5.809,0,5.7325,5.7387,5.7583,5.7622,5.7658,5.7747,5.7823,5.7897,5.7947,5.7946,5.7999,5.7964,5.8083,5.7974,5.8141,5.804,5.809,5.8106,5.8114,5.8128,5.8007,5.821,5.8536,5.8572,5.8138,5.8134,5.8131,0,5.7532,5.7664,5.78,5.7829,5.7876,5.7942,5.7966,5.8009,5.8061,5.8128,5.8163,5.8243,5.8289,5.8354,5.8344,5.8265,5.8518,5.8406,5.8526,5.8527,5.8585,5.8582,5.8929,5.8609,5.8609,5.8608,5.8607,0,5.7788,5.7913,5.7894,5.7978,5.8117,5.8088,5.8228,5.8243,5.8283,5.8373,5.832,5.8407,5.8386,5.8473,5.8466,5.861,5.8629,5.8637,5.8634,5.8644,5.8644,5.8679,5.8665,5.8617,5.8615,5.8613,5.8612,0,5.8044,5.8036,5.8181,5.8214,5.8225,5.8327,5.8358,5.844,5.8442,5.8557,5.8583,5.859,5.869,5.8685,5.8799,5.8795,5.8973,5.8949,5.8956,5.8953,5.9075,5.9066,5.946,5.9513,5.9155,5.9158,5.9161,0,5.8211,5.8305,5.8348,5.8403,5.8431,5.852,5.8573,5.855,5.8608,5.8674,5.875,5.8845,5.892,5.9085,5.9103,5.9191,5.9173,5.9305,5.9186,5.9195,5.9182,5.9178,5.919,5.933,5.9334,5.9337,5.934,0,5.8509,5.8501,5.8578,5.8655,5.872,5.878,5.8835,5.8884,5.8868,5.8937,5.9037,5.9096,5.9212,5.931,5.9395,5.9424,5.9383,5.9377,5.941,5.9423,5.9425,5.9431,5.9025,5.9369,5.9366,5.9364,5.9362,5.9361,5.8729,5.8811,5.8856,5.8945,5.8984,5.9038,5.9118,5.9131,5.9213,5.9305,5.9287,5.9402,5.9455,5.9565,5.9602,5.9695,5.9649,5.9695,5.9708,5.9722,5.9738,5.9407,5.971,5.9709,5.9708,5.9708,5.9707,0,5.9029,5.9055,5.9137,5.9216,5.9288,5.9237,5.9297,5.9362,5.9463,5.9513,5.9588,5.9708,5.9803,5.9829,5.9922,5.9992,5.9976,6.0018,6.0015,6.0024,5.9771,5.9736,6.003,6.003,6.003,6.003,6.003,6.003,5.9194,5.9333,5.9331,5.9491,5.9516,5.9627,5.9666,5.9718,5.9759,5.9893,5.9971,5.9986,6.0029,6.0125,6.0213,6.0218,6.0258,6.0309,6.0308,6.0073,6.004,6.001,5.9976,6.0316,6.0317,6.0552,6.0555,6.0556]},{"header":{"parameterUnit":"m.s-1","parameterCategory":1,"la1":30.2991,"la2":30.254,"lo1":-89.0895,"lo2":-89.0444,"dy":0.0017,"dx":0.0017,"nx":28,"ny":28,"refTime":"2026-02-06T03:00:00:Z","depth":0,"parameterNumber":3,"parameterNumberName":"V-component_of_WINDS"},"data":[0,0,0,0,0,0,0,0,0,0,0,0,0,0,0,0,0,0,0,0,0,0,0,0,0,0,0,0,0,0,0,0,0,0,0,0,0,0,0,0,0,0,0,0,0,0,0,0,0,0,0,0,0,0,0,0,0,0,0.6668,0.6669,0,0.6747,0.6748,0.6749,0.6756,0.6755,0.6754,0.6753,0.6834,0.6837,0.684,0,0,0,0,0,0,0,0,0,0,0,0,0,0.652,0.6523,0.6668,0.6669,0.667,0.6747,0.6748,0.6749,0.6756,0.6755,0.6754,0.6753,0.6834,0.6837,0.6841,0,0,0,0,0,0,0,0,0,0,0,0,0,0.659,0.6523,0.6667,0.6682,0.6684,0.6747,0.6748,0.675,0.6756,0.6755,0.6753,0.6752,0.6832,0.6837,0.6841,0.6894,0,0,0.6855,0.6857,0,0,0,0,0,0,0,0,0.6586,0.6596,0.6679,0.6681,0.6684,0.674,0.6726,0.6798,0.6756,0.6729,0.6753,0.6751,0.6804,0.6811,0.6829,0.6898,0.6902,0.6855,0.6858,0.686,0.6861,0,0,0,0,0,0,0,0.6581,0.6592,0.6699,0.668,0.6683,0.6684,0.6693,0.674,0.6773,0.6731,0.6732,0.6741,0.6805,0.6824,0.6831,0.6903,0.6855,0.6859,0.6862,0.6863,0.7018,0.7019,0,0,0,0,0,0,0.6574,0.6588,0.6697,0.6702,0.6631,0.6688,0.6698,0.6723,0.6772,0.6778,0.6742,0.6741,0.6817,0.6825,0.6833,0.6898,0.686,0.6864,0.6866,0.7016,0.7018,0.702,0,0,0,0,0,0,0.6571,0.6583,0.6693,0.6645,0.6659,0.6692,0.6721,0.6726,0.6745,0.6781,0.6786,0.6756,0.6817,0.6827,0.6879,0.69,0.6866,0.687,0.7015,0.7017,0.7019,0.7027,0,0,0,0,0,0,0.6566,0.6582,0.6603,0.6645,0.6662,0.6738,0.6722,0.6728,0.6752,0.6752,0.6795,0.6801,0.6816,0.6872,0.6883,0.6906,0.6873,0.7013,0.7016,0.7018,0.7025,0.7029,0.7033,0,0,0,0,0,0.6561,0.6603,0.6604,0.6617,0.6689,0.6739,0.6748,0.6766,0.6754,0.6775,0.6798,0.6799,0.6896,0.6877,0.689,0.6914,0.7011,0.7015,0.7018,0.7023,0.7028,0.7033,0,0,0,0,0,0,0.6563,0.6609,0.6611,0.6668,0.6699,0.674,0.6767,0.6771,0.6807,0.6805,0.6824,0.6834,0.6884,0.6905,0.6882,0.6967,0.6953,0.6958,0.6952,0.6958,0.6961,0.6955,0.6877,0,0,0,0,0,0.657,0.6608,0.6645,0.6692,0.6708,0.6735,0.6757,0.6768,0.6801,0.6815,0.6841,0.6873,0.6911,0.6935,0.6972,0.7028,0.7036,0.7051,0.7055,0.7058,0.7062,0.7091,0.7097,0.703,0.703,0.703,0,0,0.6586,0.6615,0.6638,0.6693,0.6719,0.6756,0.6746,0.6787,0.6814,0.6821,0.6871,0.6891,0.6928,0.6981,0.7006,0.7,0.7083,0.7062,0.7064,0.7067,0.7095,0.7101,0.7107,0.7032,0.7032,0.7031,0,0,0.6632,0.6659,0.6699,0.6725,0.6764,0.6781,0.6791,0.683,0.6844,0.6894,0.6899,0.6932,0.6997,0.7023,0.7044,0.7098,0.71,0.7109,0.7129,0.7157,0.7163,0.7167,0.7185,0.7191,0.7114,0.7114,0.7114,0,0.6646,0.6703,0.672,0.676,0.6784,0.679,0.6831,0.6855,0.6904,0.692,0.6912,0.6991,0.7017,0.7075,0.7088,0.7106,0.7116,0.7104,0.716,0.7165,0.717,0.7187,0.7194,0.7114,0.7114,0.7114,0.7114,0,0.6717,0.6757,0.6785,0.6831,0.6858,0.6898,0.692,0.6945,0.6952,0.697,0.702,0.7051,0.7093,0.7107,0.7116,0.7166,0.7161,0.7156,0.7142,0.7177,0.7193,0.72,0.7116,0.7115,0.7115,0.7115,0,0,0.6769,0.6822,0.6832,0.6852,0.6894,0.6925,0.6964,0.7005,0.7025,0.7058,0.7091,0.7145,0.714,0.7164,0.7175,0.72,0.7238,0.7192,0.7193,0.7198,0.7293,0.7296,0.7303,0.7239,0.7241,0.7242,0.729,0,0.6819,0.689,0.6906,0.6967,0.7002,0.7008,0.7042,0.7071,0.7088,0.712,0.7139,0.7176,0.7168,0.7183,0.7207,0.7228,0.7257,0.7225,0.7269,0.727,0.7259,0.7312,0.7315,0.7359,0.7297,0.7298,0.7298,0,0.6888,0.6921,0.6985,0.7021,0.7036,0.7067,0.7104,0.7135,0.7167,0.7178,0.7204,0.7212,0.7252,0.7235,0.729,0.7267,0.7286,0.7299,0.7301,0.7305,0.7286,0.7317,0.7374,0.738,0.7309,0.7308,0.7307,0,0.6917,0.6978,0.7024,0.7041,0.7084,0.7105,0.7124,0.7155,0.7178,0.721,0.7225,0.7262,0.7281,0.7309,0.7326,0.7313,0.7379,0.7364,0.7387,0.7387,0.7401,0.74,0.7461,0.7414,0.7414,0.7414,0.7414,0,0.6971,0.701,0.7037,0.7066,0.7108,0.7125,0.7167,0.7186,0.7213,0.7244,0.7251,0.728,0.7301,0.7332,0.7345,0.7387,0.7397,0.7406,0.7409,0.7405,0.7403,0.7417,0.7414,0.7416,0.7416,0.7415,0.7415,0,0.7011,0.7032,0.7082,0.7118,0.7127,0.7157,0.7188,0.7214,0.7231,0.727,0.728,0.7306,0.7343,0.7362,0.7409,0.7418,0.7464,0.7466,0.7454,0.7455,0.7477,0.7474,0.7548,0.7558,0.7506,0.7506,0.7507,0,0.7044,0.7074,0.7113,0.7134,0.7153,0.7187,0.721,0.7227,0.725,0.7288,0.731,0.7347,0.7378,0.7437,0.7459,0.7494,0.7496,0.7519,0.7501,0.7496,0.7495,0.7492,0.7495,0.7523,0.7523,0.7524,0.7524,0,0.71,0.7108,0.7141,0.7177,0.7203,0.7233,0.7261,0.7278,0.7299,0.7325,0.7363,0.7386,0.7433,0.7469,0.7505,0.7524,0.7527,0.7529,0.7536,0.7532,0.7523,0.7527,0.7461,0.7528,0.7527,0.7527,0.7527,0.7527,0.7137,0.7163,0.7194,0.7229,0.7252,0.7278,0.7305,0.7324,0.7356,0.7395,0.7403,0.7442,0.7472,0.7521,0.754,0.757,0.7565,0.7576,0.7578,0.7581,0.7581,0.7519,0.7577,0.7577,0.7577,0.7577,0.7577,0,0.7192,0.7212,0.7244,0.7284,0.7311,0.7312,0.7343,0.7365,0.74,0.7427,0.7457,0.7499,0.7534,0.7558,0.7593,0.7612,0.7615,0.7621,0.7619,0.7623,0.7584,0.7574,0.7618,0.7618,0.7618,0.7618,0.7618,0.7618,0.7224,0.7267,0.7279,0.7333,0.7352,0.7391,0.7408,0.7431,0.7453,0.75,0.7528,0.7544,0.757,0.7606,0.7637,0.7644,0.7656,0.7662,0.7668,0.7631,0.7626,0.7622,0.7612,0.7664,0.7664,0.7704,0.7705,0.7705]}]]